Regional Weather Roundup
Issued by NWS Memphis, TN

Home | Current Version | Previous Version | Text Only | Print | Product List | Glossary On
Versions: 1 2 3 4 5 6 7 8 9 10 11 12 13 14 15 16 17 18 19 20 21 22 23 24 25 26 27 28 29 30 31 32 33 34 35 36 37 38 39 40 41 42 43 44 45 46 47 48 49 50
080
ASUS44 KMEG 201610
RWRMEG
MEMPHIS CWA HOURLY WEATHER ROUNDUP
NATIONAL WEATHER SERVICE MEMPHIS TN
1000 AM CST FRI JAN 20 2017

...WEST TENNESSEE...

CITY           SKY/WX    TMP DP  RH WIND       PRES   REMARKS
MEMPHIS INTL   CLOUDY    59  57  93 S14       29.77R
NWS MEMPHIS      N/A     58 N/A N/A MISG        N/A
JACKSON        CLOUDY    59  56  89 S10       29.78S
BOLIVAR        CLOUDY    59  55  88 S8G15     29.79R
UNION CITY     CLOUDY   N/A N/A N/A CALM      29.74S
PARIS          CLOUDY    55  54  94 S9        29.78R
HUNTINGDON     CLOUDY    59  55  88 S8        29.77S


...EASTERN ARKANSAS...

CITY           SKY/WX    TMP DP  RH WIND       PRES   REMARKS
JONESBORO      CLOUDY    57  55  93 S8        29.71S
WEST MEMPHIS   CLOUDY    58  58 100 S14       29.74S
BATESVILLE     CLOUDY    57  52  82 S7        29.69S
NEWPORT        CLOUDY    57  56  96 S13       29.70S
WALNUT RIDGE   CLOUDY    54  52  94 S8        29.69S
BLYTHEVILLE    CLOUDY    60  56  86 S10       29.74R
SEARCY         CLOUDY    59  57  93 S9        29.70F
STUTTGART      CLOUDY    59  52  77 SE12      29.72F
PINE BLUFF     PTSUNNY   60  57  89 S14       29.71F
MONTICELLO     PTSUNNY   61  55  81 S9G17     29.74S


...NORTH MISSISSIPPI...

CITY           SKY/WX    TMP DP  RH WIND       PRES   REMARKS
TUPELO         CLOUDY    59  56  89 S7        29.83R
OXFORD         CLOUDY    55  54  94 SW8       29.82R
BATESVILLE     CLOUDY    59  56  89 S7        29.80S
OLIVE BRANCH   CLOUDY   N/A N/A N/A S8        29.77R
TUNICA         CLOUDY    57  55  94 S9        29.77S
CLARKSDALE     CLOUDY    61  61 100 CALM      29.77S
CORINTH        CLOUDY    59  55  88 S9        29.81S
GREENWOOD      CLOUDY    60  56  86 S9        29.81R
COLUMBUS       PTSUNNY   64  57  77 SW12      29.84R
STARKVILLE     CLOUDY    61  59  94 SW8       29.86R
GOLDEN TRIANGL CLOUDY    63  55  77 SW12      29.81R


...SOUTHEAST MISSOURI...

CITY           SKY/WX    TMP DP  RH WIND       PRES   REMARKS
KENNETT        CLOUDY    57  57 100 S8        29.72R FOG
WEST PLAINS    CLOUDY    50  48  93 SE7       29.64F
POPLAR BLUFF   CLOUDY    53  52  96 S3        29.71R FOG
CAPE GIRARDEAU CLOUDY    53  51  93 S8        29.72S


...NORTHWEST ALABAMA...

CITY           SKY/WX    TMP DP  RH WIND       PRES   REMARKS
MUSCLE SHOALS  CLOUDY    60  56  86 S8        29.85R


...MIDDLE TENNESSEE...

CITY           SKY/WX    TMP DP  RH WIND       PRES   REMARKS
NASHVILLE      PTSUNNY   61  53  75 SW7       29.82R
CLARKSVILLE    PTSUNNY   60  54  80 S10       29.79R
COLUMBIA       MOSUNNY   61  61 100 S7        29.80S


...WESTERN KENTUCKY...

CITY           SKY/WX    TMP DP  RH WIND       PRES   REMARKS
PADUCAH        CLOUDY    56  51  84 S5        29.73S HAZE
FORT CAMPBELL  PTSUNNY   60  57  89 SW12      29.78R


...CENTRAL ARKANSAS...

CITY           SKY/WX    TMP DP  RH WIND       PRES   REMARKS
LITTLE ROCK    PTSUNNY   59  56  89 S13G20    29.69S


SKY/WX REPORTED AS FAIR MEANS FEW OR NO CLOUDS BELOW
12 THOUSAND FEET.





USA.gov is the U.S. government's official web portal to all federal, state and local government web resources and services.